Sanford, FL

7:59 PM EDT on May 25, 2017 (GMT -0400)
Orlando Sanford

Weather History for KSFB - April, 2013

Change the Weather History Date:

Tuesday, April 30, 2013

  Actual Average Record
Temperature  
Mean Temperature 75 °F -  
Max Temperature 84 °F 84 °F 93 °F (1971)
Min Temperature 66 °F 58 °F 46 °F (1992)
Cooling Degree Days 10    
Growing Degree Days 25 (Base 50)    
Moisture  
Dew Point 66 °F    
Average Humidity 84    
Maximum Humidity 100    
Minimum Humidity 49    
Precipitation  
Precipitation 0.24 in - - ()
Sea Level Pressure  
Sea Level Pressure 29.99 in    
Wind  
Wind Speed 4 mph (South)    
Max Wind Speed 16 mph    
Max Gust Speed -    
Visibility 8 miles    
Events Rain , Thunderstorm    
Averages and records for this station are not official NWS values.
T = Trace of Precipitation, MM = Missing Value Source: NWS Daily Summary

Daily Weather History Graph

Daily Weather History Graph

Search for Another Location

Airport or City:

Trip Planner

Search our weather history database for the weather conditions in past years. The results will help you decide how hot, cold, wet, or windy it might be!

Date:

Astronomy

Apr. 30, 2013 Rise Set
Actual Time 6:44 AM EDT 8:00 PM EDT
Civil Twilight 6:19 AM EDT 8:25 PM EDT
Nautical Twilight 5:49 AM EDT 8:54 PM EDT
Astronomical Twilight 5:19 AM EDT 9:25 PM EDT
Moon 12:16 AM EDT (4/30) 11:16 AM EDT (4/30)
Length of Visible Light 14h 05m
Length of Day
13h 15m
Waning Gibbous, 70% of the Moon is Illuminated
Apr 30
Waning Gibbous
May 2
Last Quarter
May 9
New
May 18
First Quarter
May 25
Full

Hourly Weather History & Observations

Time (EDT) Temp. Heat Index Dew Point Humidity Pressure Visibility Wind Dir Wind Speed Gust Speed Precip Events Conditions
12:53 AM 66.9 °F - 66.9 °F 100% 29.98 in 10.0 mi SSE 3.5 mph - 0.00 in Rain , Thunderstorm Light Thunderstorms and Rain
1:06 AM 66.2 °F - 66.2 °F 100% 29.97 in 10.0 mi Calm Calm - 0.00 in Rain , Thunderstorm Light Thunderstorms and Rain
1:38 AM 68.0 °F - 66.2 °F 94% 29.97 in 10.0 mi SSW 3.5 mph - 0.00 in Rain , Thunderstorm Light Thunderstorms and Rain
1:48 AM 66.2 °F - 66.2 °F 100% 29.97 in 10.0 mi SSW 3.5 mph - 0.00 in Rain , Thunderstorm Light Thunderstorms and Rain
1:53 AM 66.9 °F - 66.0 °F 97% 29.96 in 10.0 mi Calm Calm - 0.00 in Rain , Thunderstorm Light Thunderstorms and Rain
2:53 AM 68.0 °F - 66.0 °F 93% 29.96 in 10.0 mi SW 4.6 mph - 0.01 in Rain , Thunderstorm Light Thunderstorms and Rain
3:53 AM 68.0 °F - 66.0 °F 93% 29.96 in 10.0 mi South 3.5 mph - 0.00 in Rain , Thunderstorm Light Thunderstorms and Rain
4:53 AM 66.9 °F - 66.0 °F 97% 29.95 in 10.0 mi Calm Calm - 0.00 in Rain , Thunderstorm Light Thunderstorms and Rain
5:53 AM 68.0 °F - 66.0 °F 93% 29.97 in 10.0 mi Calm Calm - 0.00 in Rain , Thunderstorm Light Thunderstorms and Rain
6:53 AM 69.1 °F - 66.9 °F 93% 29.99 in 5.0 mi SW 4.6 mph - 0.04 in Rain , Thunderstorm Light Thunderstorms and Rain
7:53 AM 69.1 °F - 68.0 °F 96% 29.99 in 4.0 mi West 3.5 mph - 0.09 in Rain Rain
8:53 AM 70.0 °F - 69.1 °F 97% 29.99 in 9.0 mi South 4.6 mph - 0.01 in   Scattered Clouds
9:53 AM 72.0 °F - 68.0 °F 87% 30.00 in 10.0 mi WSW 3.5 mph - N/A   Mostly Cloudy
10:53 AM 73.0 °F - 66.9 °F 81% 30.01 in 10.0 mi SSW 4.6 mph - N/A   Overcast
11:53 AM 78.1 °F - 64.9 °F 64% 30.01 in 10.0 mi Calm Calm - N/A   Clear
12:53 PM 80.1 °F 81.5 °F 63.0 °F 56% 29.99 in 10.0 mi Calm Calm - N/A   Clear
1:53 PM 82.0 °F 83.8 °F 64.9 °F 56% 29.96 in 10.0 mi Variable 5.8 mph - N/A   Clear
2:53 PM 84.0 °F 85.8 °F 64.9 °F 53% 29.96 in 10.0 mi Variable 4.6 mph - N/A   Mostly Cloudy
3:53 PM 84.9 °F 86.1 °F 64.0 °F 49% 29.94 in 10.0 mi Variable 5.8 mph - N/A   Partly Cloudy
4:53 PM 82.9 °F 85.8 °F 68.0 °F 60% 29.94 in 10.0 mi East 15.0 mph - N/A   Mostly Cloudy
5:53 PM 80.1 °F 82.1 °F 66.0 °F 62% 29.96 in 10.0 mi East 15.0 mph - N/A   Scattered Clouds
6:53 PM 75.9 °F - 66.9 °F 74% 29.97 in 10.0 mi ENE 16.1 mph - N/A   Scattered Clouds
7:19 PM 75.2 °F - 66.2 °F 73% 29.97 in 10.0 mi ENE 11.5 mph - 0.00 in Rain , Thunderstorm Thunderstorms and Rain
7:53 PM 73.9 °F - 66.9 °F 79% 30.00 in 10.0 mi ENE 5.8 mph - 0.00 in Rain , Thunderstorm Thunderstorms and Rain
8:11 PM 71.6 °F - 66.2 °F 83% 30.02 in 10.0 mi West 8.1 mph - N/A Rain , Thunderstorm Thunderstorms and Rain
8:27 PM 69.8 °F - 66.2 °F 88% 30.03 in 1.8 mi WNW 8.1 mph - N/A Rain , Thunderstorm Thunderstorms and Rain
8:35 PM 69.8 °F - 66.2 °F 88% 30.05 in 2.5 mi NNW 8.1 mph - N/A Rain , Thunderstorm Thunderstorms and Rain
8:53 PM 68.0 °F - 66.0 °F 93% 30.03 in 2.5 mi Variable 4.6 mph - N/A Rain , Thunderstorm Thunderstorms and Rain
8:55 PM 66.2 °F - 66.2 °F 100% 30.03 in 1.5 mi WSW 4.6 mph - 0.03 in Rain , Thunderstorm Thunderstorms and Rain
9:02 PM 68.0 °F - 66.2 °F 94% 30.02 in 2.5 mi South 5.8 mph - 0.08 in Rain , Thunderstorm Thunderstorms and Rain
9:48 PM 69.8 °F - 66.2 °F 88% 30.02 in 10.0 mi ESE 4.6 mph - 0.09 in   Overcast
9:53 PM 70.0 °F - 68.0 °F 93% 30.01 in 10.0 mi East 3.5 mph - 0.09 in   Mostly Cloudy
10:53 PM 69.1 °F - 66.9 °F 93% 30.02 in 10.0 mi North 4.6 mph - N/A   Clear
11:53 PM 69.1 °F - 66.9 °F 93% 30.03 in 10.0 mi NNE 3.5 mph - N/A   Clear